This is the latest recevied weather packets stored in our database for station/object KM4CNW. If no packets are shown the sender has not sent any weather packets the latest 10 day(s).
| Time | Temp. | Humidity | Pressure | Rain* | Wind** | Luminosity | Snow |
|---|---|---|---|---|---|---|---|
| 1777491686 | 25.56° C | 59% | 1003.3 hPa | 0 mm | - | 827 W/m² | - |
| 1777491383 | 25° C | 60% | 1003.6 hPa | 0 mm | - | 790 W/m² | - |
| 1777491081 | 24.44° C | 60% | 1003.4 hPa | 0 mm | - | 822 W/m² | - |
| 1777490776 | 25° C | 61% | 1003.7 hPa | 0 mm | - | 682 W/m² | - |
| 1777490473 | 25° C | 60% | 1003.8 hPa | 0 mm | - | 273 W/m² | - |
| 1777490169 | 25.56° C | 60% | 1003.6 hPa | 0 mm | - | 789 W/m² | - |
| 1777489866 | 25.56° C | 56% | 1003.7 hPa | 0 mm | - | 256 W/m² | - |
| 1777489563 | 25° C | 61% | 1004 hPa | 0 mm | - | 880 W/m² | - |
| 1777489260 | 24.44° C | 62% | 1003.8 hPa | 0 mm | - | 663 W/m² | - |
| 1777488957 | 25° C | 60% | 1003.8 hPa | 0 mm | - | 865 W/m² | - |
| 1777488654 | 25° C | 60% | 1004 hPa | 0 mm | - | 895 W/m² | - |
| 1777488352 | 25° C | 60% | 1004.2 hPa | 0 mm | - | 856 W/m² | - |
| 1777488050 | 24.44° C | 60% | 1004.4 hPa | 0 mm | - | 907 W/m² | - |
| 1777487747 | 24.44° C | 64% | 1004.5 hPa | 0 mm | - | 887 W/m² | - |
| 1777487445 | 23.89° C | 63% | 1004.6 hPa | 0 mm | - | 1035 W/m² | - |
| 1777487143 | 23.89° C | 63% | 1004.7 hPa | 0 mm | - | 970 W/m² | - |
| 1777486838 | 23.33° C | 65% | 1004.8 hPa | 0 mm | - | 989 W/m² | - |
| 1777486536 | 23.33° C | 67% | 1004.9 hPa | 0 mm | - | 345 W/m² | - |
| 1777486233 | 23.33° C | 66% | 1004.9 hPa | 0 mm | - | 745 W/m² | - |
| 1777485931 | 22.78° C | 69% | 1004.9 hPa | 0 mm | - | 1029 W/m² | - |
| 1777485626 | 22.22° C | 71% | 1005 hPa | 0 mm | - | 1069 W/m² | - |
| 1777485321 | 22.78° C | 68% | 1004.6 hPa | 0 mm | - | 288 W/m² | - |
| 1777485018 | 22.78° C | 69% | 1005.1 hPa | 0 mm | - | 1031 W/m² | - |
| 1777484716 | 22.22° C | 71% | 1005.3 hPa | 0 mm | - | 1014 W/m² | - |
| 1777484412 | 21.67° C | 71% | 1005.5 hPa | 0 mm | - | 691 W/m² | - |
* Rain latest hour (hover to see other rain measurements)
** Current wind speed in m/s (hover to see current wind gust speed)